Location: Conjunto Santa Maria
(19.9513°S, 43.9599°W)
Time: 13:48:36
(UTC+00:00)

Cosmos 1455 - Pass Details

Date: 21 January 2021
Orbit: 499 x 520 km, 82.5° (Epoch: 04 March)

Event Time Altitude Azimuth Distance (km) Brightness Sun altitude
Rises 22:05:47 0° 355° (N) 2,627 5.6 -6.2°
Reaches altitude 10° 22:07:54 10° 354° (N) 1,749 4.7 -6.7°
Maximum altitude 22:11:45 86° 268° (W) 530 2.3 -7.5°
Drops below altitude 10° 22:15:39 10° 176° (S) 1,772 5.2 -8.3°
Sets 22:17:48 0° 176° (S) 2,666 6.1 -8.8°
